[[{"header":{"parameterUnit":"m.s-1","parameterCategory":1,"la1":30.2991,"la2":30.254,"lo1":-89.0895,"lo2":-89.0444,"dy":0.0017,"dx":0.0017,"nx":28,"ny":28,"refTime":"2025-06-16T03:00:00:Z","depth":0,"parameterNumber":2,"parameterNumberName":"U-component_of_WINDS"},"data":[0,0,0,0,0,0,0,0,0,0,0,0,0,0,0,0,0,0,0,0,0,0,0,0,0,0,0,0,0,0,0,0,0,0,0,0,0,0,0,0,0,0,0,0,0,0,0,0,0,0,0,0,0,0,0,0,0,0,-0.0841,-0.084,0,-0.0753,-0.0752,-0.0751,-0.0736,-0.0737,-0.0738,-0.0738,-0.0645,-0.0642,-0.0639,0,0,0,0,0,0,0,0,0,0,0,0,0,-0.0994,-0.0992,-0.0841,-0.084,-0.0839,-0.0753,-0.0752,-0.0751,-0.0736,-0.0737,-0.0738,-0.0739,-0.0646,-0.0643,-0.0639,0,0,0,0,0,0,0,0,0,0,0,0,0,-0.0919,-0.0991,-0.0841,-0.0821,-0.0818,-0.0753,-0.0752,-0.075,-0.0736,-0.0737,-0.0738,-0.0739,-0.0648,-0.0643,-0.0638,-0.0586,0,0,-0.0624,-0.0622,0,0,0,0,0,0,0,0,-0.0924,-0.0914,-0.0825,-0.0822,-0.0819,-0.0757,-0.0772,-0.0695,-0.0735,-0.0767,-0.0738,-0.074,-0.0681,-0.0674,-0.0655,-0.0582,-0.0578,-0.0623,-0.062,-0.0618,-0.0617,0,0,0,0,0,0,0,-0.0929,-0.0917,-0.0806,-0.0824,-0.082,-0.0816,-0.0807,-0.0757,-0.0719,-0.0764,-0.0763,-0.0753,-0.068,-0.0659,-0.0652,-0.0577,-0.0623,-0.0619,-0.0616,-0.0614,-0.0458,-0.0457,0,0,0,0,0,0,-0.0938,-0.0922,-0.0809,-0.0803,-0.0875,-0.0812,-0.0802,-0.0776,-0.0719,-0.0712,-0.0752,-0.0753,-0.0667,-0.0658,-0.0649,-0.0585,-0.0618,-0.0614,-0.0611,-0.0459,-0.0458,-0.0456,0,0,0,0,0,0,-0.0941,-0.0928,-0.0812,-0.0862,-0.0847,-0.0809,-0.0779,-0.0773,-0.0753,-0.071,-0.0703,-0.0738,-0.0668,-0.0656,-0.0603,-0.0582,-0.0612,-0.0607,-0.0461,-0.0459,-0.0457,-0.0457,0,0,0,0,0,0,-0.0946,-0.0929,-0.0909,-0.0862,-0.0845,-0.0768,-0.0778,-0.0771,-0.0745,-0.0745,-0.0695,-0.0688,-0.0668,-0.061,-0.0598,-0.0576,-0.0604,-0.0462,-0.046,-0.0458,-0.0458,-0.0455,-0.0452,0,0,0,0,0,-0.0951,-0.0912,-0.0908,-0.0895,-0.0819,-0.0766,-0.0756,-0.0734,-0.0743,-0.0723,-0.0696,-0.069,-0.0586,-0.0604,-0.0591,-0.0567,-0.0464,-0.0461,-0.0458,-0.046,-0.0456,-0.0452,0,0,0,0,0,0,-0.0956,-0.0905,-0.0901,-0.0845,-0.081,-0.0764,-0.0737,-0.073,-0.0692,-0.0693,-0.0667,-0.0655,-0.0604,-0.058,-0.0601,-0.0514,-0.0526,-0.052,-0.0532,-0.0527,-0.0524,-0.0531,-0.06,0,0,0,0,0,-0.0951,-0.0913,-0.087,-0.0825,-0.0808,-0.0776,-0.0752,-0.0738,-0.0701,-0.0686,-0.0655,-0.0618,-0.0578,-0.0551,-0.0511,-0.0455,-0.0444,-0.0432,-0.0429,-0.0427,-0.0422,-0.0391,-0.0386,-0.0447,-0.0447,-0.0447,0,0,-0.0939,-0.0906,-0.0884,-0.0825,-0.0797,-0.0758,-0.0763,-0.0722,-0.0693,-0.0679,-0.0627,-0.0604,-0.0561,-0.0507,-0.0481,-0.0485,-0.0403,-0.0423,-0.0422,-0.0418,-0.0388,-0.0382,-0.0377,-0.0445,-0.0445,-0.0445,0,0,-0.0897,-0.0869,-0.0829,-0.0801,-0.0759,-0.0738,-0.0729,-0.0684,-0.0668,-0.0616,-0.0605,-0.057,-0.0501,-0.0471,-0.0447,-0.0397,-0.0391,-0.0385,-0.0368,-0.0339,-0.0334,-0.033,-0.0312,-0.0306,-0.0381,-0.0381,-0.0381,0,-0.0888,-0.083,-0.0809,-0.0768,-0.0743,-0.0731,-0.069,-0.0664,-0.061,-0.0593,-0.0599,-0.0512,-0.0483,-0.0422,-0.041,-0.0391,-0.0379,-0.039,-0.0337,-0.0332,-0.0328,-0.0311,-0.0304,-0.038,-0.038,-0.038,-0.038,0,-0.082,-0.078,-0.0753,-0.0703,-0.0675,-0.0634,-0.0607,-0.0581,-0.057,-0.0549,-0.0497,-0.0461,-0.0415,-0.0399,-0.0387,-0.0337,-0.0341,-0.0342,-0.0353,-0.0322,-0.0305,-0.0299,-0.038,-0.038,-0.038,-0.038,0,0,-0.0777,-0.0719,-0.0709,-0.0687,-0.064,-0.0609,-0.0568,-0.0524,-0.0502,-0.0466,-0.0431,-0.0374,-0.0375,-0.0348,-0.0333,-0.0308,-0.0271,-0.0312,-0.0311,-0.0306,-0.0214,-0.0213,-0.0206,-0.0267,-0.0266,-0.0265,-0.0218,0,-0.0731,-0.0658,-0.064,-0.0578,-0.0541,-0.053,-0.0495,-0.0463,-0.0442,-0.0408,-0.0385,-0.0345,-0.0349,-0.0333,-0.0307,-0.0281,-0.0253,-0.0285,-0.0234,-0.0233,-0.0245,-0.0197,-0.0196,-0.0152,-0.0211,-0.021,-0.0209,0,-0.0666,-0.0631,-0.0566,-0.0526,-0.0509,-0.0478,-0.0437,-0.0404,-0.0368,-0.0354,-0.0325,-0.0314,-0.0271,-0.0285,-0.0226,-0.0248,-0.0227,-0.0211,-0.0209,-0.0203,-0.0219,-0.019,-0.0138,-0.0132,-0.0199,-0.02,-0.02,0,-0.0642,-0.0578,-0.0531,-0.0512,-0.0464,-0.0443,-0.0421,-0.0386,-0.0361,-0.0325,-0.0309,-0.0268,-0.0246,-0.0214,-0.0192,-0.0204,-0.0135,-0.0146,-0.0122,-0.0123,-0.0107,-0.0108,-0.0052,-0.0094,-0.0094,-0.0095,-0.0095,0,-0.0591,-0.0552,-0.052,-0.0491,-0.0447,-0.0426,-0.0383,-0.0361,-0.033,-0.0297,-0.0285,-0.0254,-0.0227,-0.0192,-0.0174,-0.0128,-0.0118,-0.0106,-0.0102,-0.0107,-0.0109,-0.0092,-0.0094,-0.0093,-0.0093,-0.0094,-0.0094,0,-0.0556,-0.0533,-0.0481,-0.0441,-0.043,-0.0399,-0.0365,-0.0336,-0.0316,-0.0275,-0.0264,-0.0232,-0.0191,-0.0166,-0.0113,-0.0101,-0.005,-0.0047,-0.0063,-0.0061,-0.0038,-0.0041,0.0032,0.0042,-0.0008,-0.0008,-0.0007,0,-0.0525,-0.0495,-0.0452,-0.043,-0.0409,-0.0372,-0.0348,-0.0326,-0.0301,-0.0258,-0.0235,-0.0194,-0.0159,-0.0094,-0.0065,-0.0025,-0.0021,0.0001,-0.0015,-0.0022,-0.0021,-0.0023,-0.002,0.0004,0.0005,0.0005,0.0006,0,-0.0473,-0.0463,-0.0429,-0.039,-0.0362,-0.033,-0.0298,-0.0281,-0.0254,-0.0226,-0.0185,-0.0158,-0.0106,-0.0064,-0.0022,-0.0,0.0007,0.001,0.0018,0.0013,0.0003,0.0008,-0.0055,0.0009,0.0008,0.0008,0.0008,0.0008,-0.0439,-0.0412,-0.0378,-0.034,-0.0315,-0.0286,-0.0258,-0.0236,-0.0201,-0.0157,-0.0147,-0.0103,-0.0069,-0.0012,0.0011,0.0045,0.0042,0.0053,0.0056,0.0059,0.0059,-0.0004,0.0053,0.0053,0.0053,0.0053,0.0053,0,-0.0386,-0.0364,-0.033,-0.0287,-0.0257,-0.0255,-0.022,-0.0196,-0.0158,-0.0127,-0.0094,-0.0047,-0.0007,0.0023,0.0063,0.0085,0.0089,0.0095,0.0094,0.0099,0.006,0.0049,0.009,0.009,0.009,0.009,0.009,0.009,-0.0355,-0.031,-0.0297,-0.0239,-0.0218,-0.0176,-0.0157,-0.013,-0.0106,-0.0054,-0.0022,-0.0003,0.0028,0.007,0.0106,0.0114,0.0128,0.0133,0.0142,0.0105,0.0101,0.0098,0.0088,0.0136,0.0136,0.0177,0.0178,0.0178]},{"header":{"parameterUnit":"m.s-1","parameterCategory":1,"la1":30.2991,"la2":30.254,"lo1":-89.0895,"lo2":-89.0444,"dy":0.0017,"dx":0.0017,"nx":28,"ny":28,"refTime":"2025-06-16T03:00:00:Z","depth":0,"parameterNumber":3,"parameterNumberName":"V-component_of_WINDS"},"data":[0,0,0,0,0,0,0,0,0,0,0,0,0,0,0,0,0,0,0,0,0,0,0,0,0,0,0,0,0,0,0,0,0,0,0,0,0,0,0,0,0,0,0,0,0,0,0,0,0,0,0,0,0,0,0,0,0,0,5.5038,5.5039,0,5.5091,5.5092,5.5092,5.5054,5.5052,5.5051,5.5049,5.5098,5.5101,5.5104,0,0,0,0,0,0,0,0,0,0,0,0,0,5.49,5.4902,5.5038,5.5039,5.504,5.5091,5.5092,5.5092,5.5054,5.5052,5.505,5.5048,5.5097,5.51,5.5104,0,0,0,0,0,0,0,0,0,0,0,0,0,5.4957,5.4903,5.5038,5.5027,5.5026,5.5091,5.5092,5.5092,5.5055,5.5052,5.505,5.5047,5.5096,5.51,5.5104,5.5181,0,0,5.5117,5.5119,0,0,0,0,0,0,0,0,5.4953,5.4962,5.5028,5.5028,5.5027,5.5063,5.5061,5.5122,5.5055,5.5044,5.5049,5.5046,5.5088,5.5093,5.5108,5.5183,5.5185,5.5118,5.512,5.5122,5.5124,0,0,0,0,0,0,0,5.495,5.4959,5.5059,5.5029,5.5029,5.5018,5.5023,5.5072,5.5079,5.5045,5.5042,5.5049,5.5088,5.5104,5.5109,5.5186,5.5118,5.5122,5.5124,5.5126,5.5326,5.5329,0,0,0,0,0,0,5.4947,5.4956,5.5057,5.506,5.4984,5.5022,5.5028,5.5054,5.5079,5.508,5.5051,5.5047,5.5098,5.5104,5.5111,5.5201,5.5122,5.5126,5.5129,5.5323,5.5327,5.533,0,0,0,0,0,0,5.4945,5.4957,5.5055,5.5008,5.5019,5.5027,5.5057,5.5057,5.5073,5.5084,5.5084,5.5067,5.5096,5.5105,5.5164,5.5203,5.5128,5.5132,5.532,5.5324,5.5328,5.5384,0,0,0,0,0,0,5.4941,5.4956,5.4986,5.5009,5.5022,5.5109,5.5059,5.5059,5.5081,5.5077,5.5099,5.51,5.5095,5.5158,5.5168,5.5207,5.5135,5.5317,5.5322,5.5327,5.5379,5.539,5.5399,0,0,0,0,0,5.4936,5.4999,5.4988,5.5,5.5061,5.5112,5.5119,5.5113,5.5085,5.5114,5.5121,5.5099,5.5197,5.5164,5.5176,5.5216,5.5314,5.532,5.5326,5.5374,5.5387,5.5399,0,0,0,0,0,0,5.4979,5.5002,5.499,5.5062,5.5086,5.5105,5.5142,5.5128,5.5158,5.5152,5.5142,5.5147,5.521,5.5219,5.5182,5.5292,5.5251,5.5259,5.5283,5.5296,5.5306,5.5301,5.5139,0,0,0,0,0,5.4997,5.5039,5.5055,5.5118,5.513,5.5135,5.5156,5.515,5.5173,5.5182,5.5193,5.5215,5.525,5.5274,5.5307,5.538,5.5384,5.5414,5.5424,5.5432,5.5439,5.5478,5.5491,5.535,5.535,5.535,0,0,5.5035,5.5052,5.5078,5.5127,5.5144,5.5185,5.5143,5.5188,5.5218,5.5188,5.5246,5.5254,5.5278,5.5344,5.5374,5.5354,5.5479,5.544,5.5446,5.5449,5.5486,5.5499,5.5511,5.5354,5.5353,5.5353,0,0,5.5124,5.5142,5.5196,5.5214,5.5242,5.5244,5.5257,5.5279,5.5284,5.5342,5.532,5.5355,5.5417,5.5434,5.5451,5.5548,5.5528,5.5559,5.561,5.5648,5.5659,5.5669,5.5703,5.5715,5.5566,5.5566,5.5566,0,5.5166,5.523,5.5225,5.5272,5.5293,5.5271,5.5324,5.5341,5.5377,5.5392,5.5369,5.5446,5.546,5.553,5.5554,5.5569,5.5582,5.5555,5.5659,5.5668,5.5677,5.5709,5.5722,5.557,5.5569,5.5569,5.5569,0,5.528,5.5324,5.5364,5.5401,5.5427,5.5477,5.5478,5.5505,5.5497,5.5501,5.5559,5.5576,5.5612,5.5628,5.562,5.5697,5.5684,5.566,5.5619,5.5694,5.5724,5.5736,5.5575,5.5573,5.5572,5.5571,0,0,5.5397,5.5432,5.5446,5.5463,5.5492,5.5524,5.5573,5.561,5.5632,5.5658,5.5697,5.5751,5.5729,5.5748,5.5742,5.5775,5.585,5.5747,5.5748,5.5765,5.5934,5.5951,5.5966,5.5838,5.584,5.5842,5.5932,0,5.5487,5.5573,5.5571,5.5651,5.569,5.5669,5.5711,5.5733,5.5738,5.5772,5.5777,5.5815,5.5784,5.5795,5.5828,5.5834,5.5883,5.5827,5.5873,5.5874,5.5866,5.5981,5.5999,5.6084,5.5944,5.5946,5.5947,0,5.5603,5.5635,5.5719,5.5742,5.5759,5.5797,5.583,5.5863,5.5886,5.5888,5.591,5.5898,5.5946,5.5904,5.5969,5.5931,5.5949,5.5955,5.5958,5.5961,5.5915,5.5986,5.611,5.6123,5.5966,5.5964,5.5963,0,5.5679,5.5742,5.5801,5.5816,5.5844,5.5871,5.5884,5.5905,5.5927,5.5956,5.597,5.6004,5.6022,5.6047,5.6044,5.6014,5.611,5.6068,5.6111,5.6111,5.6131,5.6129,5.6259,5.6145,5.6144,5.6144,5.6144,0,5.5779,5.5831,5.5835,5.5871,5.5928,5.5924,5.5981,5.599,5.6009,5.6046,5.6029,5.6063,5.6058,5.6091,5.6089,5.6143,5.6151,5.6152,5.6151,5.6153,5.6153,5.6164,5.6158,5.6147,5.6147,5.6146,5.6146,0,5.5872,5.5877,5.594,5.5962,5.5969,5.601,5.6028,5.6062,5.6066,5.6112,5.6123,5.613,5.6168,5.6168,5.6212,5.6211,5.6276,5.6268,5.6268,5.6266,5.6309,5.6305,5.6449,5.6467,5.6343,5.6344,5.6345,0,5.5935,5.5975,5.6002,5.6026,5.6041,5.608,5.6103,5.6101,5.6125,5.6155,5.6184,5.6222,5.6252,5.6314,5.6322,5.6355,5.6348,5.6396,5.6352,5.6353,5.6347,5.6344,5.6348,5.6404,5.6406,5.6407,5.6408,0,5.6046,5.6047,5.6082,5.6118,5.6147,5.6175,5.62,5.6221,5.622,5.6249,5.6289,5.6313,5.6358,5.6395,5.6427,5.6438,5.6423,5.6422,5.6433,5.6435,5.6433,5.6434,5.629,5.6418,5.6417,5.6416,5.6416,5.6415,5.6125,5.616,5.6185,5.6224,5.6244,5.6268,5.6301,5.631,5.6344,5.6382,5.6378,5.6423,5.6445,5.6487,5.6501,5.6535,5.6518,5.6534,5.6538,5.6542,5.6547,5.6429,5.6541,5.654,5.654,5.654,5.654,0,5.6234,5.625,5.6286,5.6324,5.6355,5.634,5.6367,5.6393,5.6433,5.6456,5.6486,5.6532,5.6568,5.658,5.6614,5.6639,5.6632,5.6648,5.6645,5.6648,5.6561,5.6547,5.6652,5.6652,5.6652,5.6652,5.6652,5.6652,5.6295,5.6352,5.6356,5.6422,5.6437,5.6482,5.6499,5.6521,5.6539,5.6592,5.6622,5.663,5.6648,5.6683,5.6715,5.6717,5.673,5.6748,5.6748,5.6665,5.6654,5.6643,5.663,5.6752,5.6752,5.6832,5.6833,5.6833]}]]